Year,Month,Day,Hour,Minute,Value (Times are PST for windspeed in km/hr)
2018,01,24,00,00,10.10
2018,01,24,00,01,12.70
2018,01,24,00,02,13.50
2018,01,24,00,03,8.30
2018,01,24,00,04,3.30
2018,01,24,00,05,6.60
2018,01,24,00,06,4.70
2018,01,24,00,07,2.30
2018,01,24,00,08,8.30
2018,01,24,00,09,8.40
2018,01,24,00,10,7.80
2018,01,24,00,11,10.90
2018,01,24,00,12,5.00
2018,01,24,00,13,5.30
2018,01,24,00,14,6.30
2018,01,24,00,15,8.30
2018,01,24,00,16,12.00
2018,01,24,00,17,12.40
2018,01,24,00,18,10.00
2018,01,24,00,19,4.80
2018,01,24,00,20,3.80
2018,01,24,00,21,3.30
2018,01,24,00,22,5.00
2018,01,24,00,23,2.40
2018,01,24,00,24,4.50
2018,01,24,00,25,3.20
2018,01,24,00,26,4.60
2018,01,24,00,27,3.70
2018,01,24,00,28,0.60
2018,01,24,00,29,0.00
2018,01,24,00,30,0.00
2018,01,24,00,31,1.00
2018,01,24,00,32,0.30
2018,01,24,00,33,1.60
2018,01,24,00,34,0.20
2018,01,24,00,35,0.20
2018,01,24,00,36,0.40
2018,01,24,00,37,0.40
2018,01,24,00,38,2.70
2018,01,24,00,39,3.70
2018,01,24,00,40,4.50
2018,01,24,00,41,1.30
2018,01,24,00,42,3.90
2018,01,24,00,43,2.40
2018,01,24,00,44,4.40
2018,01,24,00,45,3.20
2018,01,24,00,46,2.80
2018,01,24,00,47,2.60
2018,01,24,00,48,2.00
2018,01,24,00,49,3.00
2018,01,24,00,50,0.90
2018,01,24,00,51,5.30
2018,01,24,00,52,4.30
2018,01,24,00,53,5.40
2018,01,24,00,54,4.00
2018,01,24,00,55,2.60
2018,01,24,00,56,3.30
2018,01,24,00,57,3.70
2018,01,24,00,58,5.80
2018,01,24,00,59,4.70
2018,01,24,01,00,7.00
2018,01,24,01,01,11.70
2018,01,24,01,02,5.40
2018,01,24,01,03,5.00
2018,01,24,01,04,6.30
2018,01,24,01,05,5.30
2018,01,24,01,06,9.30
2018,01,24,01,07,5.60
2018,01,24,01,08,5.60
2018,01,24,01,09,1.40
2018,01,24,01,10,0.20
2018,01,24,01,11,3.10
2018,01,24,01,12,3.10
2018,01,24,01,13,4.20
2018,01,24,01,14,1.60
2018,01,24,01,15,1.60
2018,01,24,01,16,1.20
2018,01,24,01,17,3.30
2018,01,24,01,18,7.60
2018,01,24,01,19,5.10
2018,01,24,01,20,0.40
2018,01,24,01,21,3.00
2018,01,24,01,22,0.30
2018,01,24,01,23,3.80
2018,01,24,01,24,1.60
2018,01,24,01,25,2.70
2018,01,24,01,26,3.70
2018,01,24,01,27,2.60
2018,01,24,01,28,1.50
2018,01,24,01,29,3.60
2018,01,24,01,30,1.80
2018,01,24,01,31,1.30
2018,01,24,01,32,4.30
2018,01,24,01,33,3.90
2018,01,24,01,34,2.30
2018,01,24,01,35,1.30
2018,01,24,01,36,0.60
2018,01,24,01,37,6.70
2018,01,24,01,38,4.00
2018,01,24,01,39,5.50
2018,01,24,01,40,12.40
2018,01,24,01,41,6.40
2018,01,24,01,42,9.40
2018,01,24,01,43,3.40
2018,01,24,01,44,3.30
2018,01,24,01,45,2.90
2018,01,24,01,46,4.50
2018,01,24,01,47,4.70
2018,01,24,01,48,7.10
2018,01,24,01,49,8.00
2018,01,24,01,50,4.40
2018,01,24,01,51,1.00
2018,01,24,01,52,3.50
2018,01,24,01,53,4.70
2018,01,24,01,54,1.70
2018,01,24,01,55,5.80
2018,01,24,01,56,10.10
2018,01,24,01,57,7.60
2018,01,24,01,58,9.50
2018,01,24,01,59,4.20
2018,01,24,02,00,2.40
2018,01,24,02,01,6.60
2018,01,24,02,02,6.50
2018,01,24,02,03,5.80
2018,01,24,02,04,8.10
2018,01,24,02,05,6.10
2018,01,24,02,06,3.30
2018,01,24,02,07,4.00
2018,01,24,02,08,4.10
2018,01,24,02,09,3.50
2018,01,24,02,10,1.20
2018,01,24,02,11,4.40
2018,01,24,02,12,7.40
2018,01,24,02,13,3.00
2018,01,24,02,14,4.80
2018,01,24,02,15,1.80
2018,01,24,02,16,7.00
2018,01,24,02,17,6.80
2018,01,24,02,18,5.90
2018,01,24,02,19,5.30
2018,01,24,02,20,6.90
2018,01,24,02,21,7.50
2018,01,24,02,22,5.20
2018,01,24,02,23,4.50
2018,01,24,02,24,9.40
2018,01,24,02,25,3.60
2018,01,24,02,26,3.30
2018,01,24,02,27,1.70
2018,01,24,02,28,1.80
2018,01,24,02,29,2.00
2018,01,24,02,30,5.80
2018,01,24,02,31,7.50
2018,01,24,02,32,2.80
2018,01,24,02,33,0.60
2018,01,24,02,34,4.20
2018,01,24,02,35,4.00
2018,01,24,02,36,4.00
2018,01,24,02,37,3.90
2018,01,24,02,38,4.10
2018,01,24,02,39,2.20
2018,01,24,02,40,4.90
2018,01,24,02,41,8.70
2018,01,24,02,42,2.10
2018,01,24,02,43,3.20
2018,01,24,02,44,2.90
2018,01,24,02,45,6.70
2018,01,24,02,46,6.90
2018,01,24,02,47,7.20
2018,01,24,02,48,1.80
2018,01,24,02,49,2.10
2018,01,24,02,50,3.30
2018,01,24,02,51,6.90
2018,01,24,02,52,5.20
2018,01,24,02,53,3.30
2018,01,24,02,54,2.20
2018,01,24,02,55,1.80
2018,01,24,02,56,1.70
2018,01,24,02,57,0.40
2018,01,24,02,58,0.60
2018,01,24,02,59,3.10
2018,01,24,03,00,7.00
2018,01,24,03,01,6.10
2018,01,24,03,02,7.40
2018,01,24,03,03,2.80
2018,01,24,03,04,6.20
2018,01,24,03,05,5.70
2018,01,24,03,06,7.20
2018,01,24,03,07,6.20
2018,01,24,03,08,6.00
2018,01,24,03,09,2.90
2018,01,24,03,10,8.50
2018,01,24,03,11,5.10
2018,01,24,03,12,4.00
2018,01,24,03,13,4.80
2018,01,24,03,14,0.90
2018,01,24,03,15,6.20
2018,01,24,03,16,3.60
2018,01,24,03,17,3.60
2018,01,24,03,18,5.40
2018,01,24,03,19,2.60
2018,01,24,03,20,3.30
2018,01,24,03,21,6.20
2018,01,24,03,22,1.70
2018,01,24,03,23,3.80
2018,01,24,03,24,2.80
2018,01,24,03,25,3.60
2018,01,24,03,26,4.30
2018,01,24,03,27,6.70
2018,01,24,03,28,6.70
2018,01,24,03,29,3.30
2018,01,24,03,30,6.20
2018,01,24,03,31,8.40
2018,01,24,03,32,5.10
2018,01,24,03,33,2.30
2018,01,24,03,34,2.00
2018,01,24,03,35,1.80
2018,01,24,03,36,7.80
2018,01,24,03,37,6.10
2018,01,24,03,38,4.10
2018,01,24,03,39,6.50
2018,01,24,03,40,4.40
2018,01,24,03,41,9.90
2018,01,24,03,42,8.00
2018,01,24,03,43,6.50
2018,01,24,03,44,5.40
2018,01,24,03,45,4.10
2018,01,24,03,46,7.50
2018,01,24,03,47,9.10
2018,01,24,03,48,6.10
2018,01,24,03,49,2.90
2018,01,24,03,50,6.00
2018,01,24,03,51,5.50
2018,01,24,03,52,9.00
2018,01,24,03,53,9.80
2018,01,24,03,54,5.80
2018,01,24,03,55,6.10
2018,01,24,03,56,4.70
2018,01,24,03,57,10.80
2018,01,24,03,58,6.60
2018,01,24,03,59,6.30
2018,01,24,04,00,8.80
2018,01,24,04,01,6.40
2018,01,24,04,02,8.80
2018,01,24,04,03,11.60
2018,01,24,04,04,9.60
2018,01,24,04,05,8.10
2018,01,24,04,06,13.30
2018,01,24,04,07,7.90
2018,01,24,04,08,5.80
2018,01,24,04,09,7.50
2018,01,24,04,10,5.70
2018,01,24,04,11,10.90
2018,01,24,04,12,7.50
2018,01,24,04,13,8.90
2018,01,24,04,14,12.20
2018,01,24,04,15,9.50
2018,01,24,04,16,4.80
2018,01,24,04,17,7.40
2018,01,24,04,18,11.70
2018,01,24,04,19,7.80
2018,01,24,04,20,9.20
2018,01,24,04,21,7.70
2018,01,24,04,22,5.80
2018,01,24,04,23,4.20
2018,01,24,04,24,3.70
2018,01,24,04,25,5.30
2018,01,24,04,26,7.00
2018,01,24,04,27,2.20
2018,01,24,04,28,2.50
2018,01,24,04,29,7.80
2018,01,24,04,30,8.40
2018,01,24,04,31,6.00
2018,01,24,04,32,5.00
2018,01,24,04,33,3.70
2018,01,24,04,34,5.10
2018,01,24,04,35,2.50
2018,01,24,04,36,2.80
2018,01,24,04,37,6.50
2018,01,24,04,38,5.80
2018,01,24,04,39,7.00
2018,01,24,04,40,8.80
2018,01,24,04,41,9.70
2018,01,24,04,42,8.00
2018,01,24,04,43,2.10
2018,01,24,04,44,5.30
2018,01,24,04,45,8.90
2018,01,24,04,46,2.90
2018,01,24,04,47,7.20
2018,01,24,04,48,6.70
2018,01,24,04,49,10.20
2018,01,24,04,50,7.40
2018,01,24,04,51,5.60
2018,01,24,04,52,8.40
2018,01,24,04,53,7.90
2018,01,24,04,54,11.60
2018,01,24,04,55,7.80
2018,01,24,04,56,4.50
2018,01,24,04,57,5.20
2018,01,24,04,58,8.20
2018,01,24,04,59,4.90
2018,01,24,05,00,3.40
2018,01,24,05,01,3.20
2018,01,24,05,02,6.10
2018,01,24,05,03,9.30
2018,01,24,05,04,5.10
2018,01,24,05,05,6.70
2018,01,24,05,06,4.50
2018,01,24,05,07,4.20
2018,01,24,05,08,5.40
2018,01,24,05,09,6.70
2018,01,24,05,10,5.60
2018,01,24,05,11,6.70
2018,01,24,05,12,5.20
2018,01,24,05,13,6.60
2018,01,24,05,14,6.70
2018,01,24,05,15,7.70
2018,01,24,05,16,5.80
2018,01,24,05,17,6.10
2018,01,24,05,18,5.90
2018,01,24,05,19,6.90
2018,01,24,05,20,4.10
2018,01,24,05,21,7.90
2018,01,24,05,22,7.90
2018,01,24,05,23,7.10
2018,01,24,05,24,6.80
2018,01,24,05,25,5.50
2018,01,24,05,26,6.70
2018,01,24,05,27,4.60
2018,01,24,05,28,6.60
2018,01,24,05,29,7.00
2018,01,24,05,30,6.70
2018,01,24,05,31,5.20
2018,01,24,05,32,7.20
2018,01,24,05,33,5.70
2018,01,24,05,34,6.20
2018,01,24,05,35,5.90
2018,01,24,05,36,5.90
2018,01,24,05,37,6.20
2018,01,24,05,38,4.40
2018,01,24,05,39,5.50
2018,01,24,05,40,3.80
2018,01,24,05,41,7.50
2018,01,24,05,42,3.00
2018,01,24,05,43,4.50
2018,01,24,05,44,2.80
2018,01,24,05,45,4.80
2018,01,24,05,46,2.60
2018,01,24,05,47,2.70
2018,01,24,05,48,5.50
2018,01,24,05,49,2.90
2018,01,24,05,50,4.40
2018,01,24,05,51,9.30
2018,01,24,05,52,9.40
2018,01,24,05,53,7.30
2018,01,24,05,54,4.00
2018,01,24,05,55,8.50
2018,01,24,05,56,8.10
2018,01,24,05,57,8.10
2018,01,24,05,58,5.30
2018,01,24,05,59,3.20
2018,01,24,06,00,3.20
2018,01,24,06,01,6.40
2018,01,24,06,02,5.10
2018,01,24,06,03,3.80
2018,01,24,06,04,5.90
2018,01,24,06,05,2.90
2018,01,24,06,06,1.00
2018,01,24,06,07,4.20
2018,01,24,06,08,5.10
2018,01,24,06,09,3.40
2018,01,24,06,10,6.20
2018,01,24,06,11,7.00
2018,01,24,06,12,5.40
2018,01,24,06,13,5.60
2018,01,24,06,14,3.50
2018,01,24,06,15,2.80
2018,01,24,06,16,2.30
2018,01,24,06,17,2.90
2018,01,24,06,18,1.60
2018,01,24,06,19,2.70
2018,01,24,06,20,2.50
2018,01,24,06,21,1.40
2018,01,24,06,22,0.50
2018,01,24,06,23,1.80
2018,01,24,06,24,1.30
2018,01,24,06,25,2.70
2018,01,24,06,26,0.80
2018,01,24,06,27,0.10
2018,01,24,06,28,0.30
2018,01,24,06,29,1.20
2018,01,24,06,30,2.10
2018,01,24,06,31,1.10
2018,01,24,06,32,3.40
2018,01,24,06,33,2.30
2018,01,24,06,34,1.60
2018,01,24,06,35,0.50
2018,01,24,06,36,1.00
2018,01,24,06,37,1.90
2018,01,24,06,38,0.60
2018,01,24,06,39,0.00
2018,01,24,06,40,0.00
2018,01,24,06,41,1.20
2018,01,24,06,42,0.00
2018,01,24,06,43,1.10
2018,01,24,06,44,0.20
2018,01,24,06,45,2.40
2018,01,24,06,46,2.80
2018,01,24,06,47,4.40
2018,01,24,06,48,1.20
2018,01,24,06,49,0.00
2018,01,24,06,50,0.00
2018,01,24,06,51,0.10
2018,01,24,06,52,0.60
2018,01,24,06,53,0.30
2018,01,24,06,54,2.00
2018,01,24,06,55,3.20
2018,01,24,06,56,1.20
2018,01,24,06,57,1.30
2018,01,24,06,58,1.60
2018,01,24,06,59,1.00
2018,01,24,07,00,0.10
2018,01,24,07,01,1.80
2018,01,24,07,02,1.10
2018,01,24,07,03,2.70
2018,01,24,07,04,2.30
2018,01,24,07,05,0.80
2018,01,24,07,06,0.20
2018,01,24,07,07,0.00
2018,01,24,07,08,1.00
2018,01,24,07,09,1.00
2018,01,24,07,10,0.30
2018,01,24,07,11,0.00
2018,01,24,07,12,3.00
2018,01,24,07,13,3.30
2018,01,24,07,14,1.30
2018,01,24,07,15,2.40
2018,01,24,07,16,2.80
2018,01,24,07,17,2.90
2018,01,24,07,18,3.30
2018,01,24,07,19,2.50
2018,01,24,07,20,2.20
2018,01,24,07,21,5.90
2018,01,24,07,22,2.30
2018,01,24,07,23,1.40
2018,01,24,07,24,2.20
2018,01,24,07,25,0.80
2018,01,24,07,26,2.10
2018,01,24,07,27,3.80
2018,01,24,07,28,3.80
2018,01,24,07,29,2.30
2018,01,24,07,30,2.10
2018,01,24,07,31,0.40
2018,01,24,07,32,1.10
2018,01,24,07,33,0.90
2018,01,24,07,34,0.70
2018,01,24,07,35,0.10
2018,01,24,07,36,0.10
2018,01,24,07,37,0.00
2018,01,24,07,38,0.30
2018,01,24,07,39,0.70
2018,01,24,07,40,0.60
2018,01,24,07,41,2.50
2018,01,24,07,42,1.80
2018,01,24,07,43,3.50
2018,01,24,07,44,1.10
2018,01,24,07,45,0.10
2018,01,24,07,46,0.50
2018,01,24,07,47,3.30
2018,01,24,07,48,1.00
2018,01,24,07,49,3.00
2018,01,24,07,50,0.80
2018,01,24,07,51,0.80
2018,01,24,07,52,0.10
2018,01,24,07,53,0.00
2018,01,24,07,54,0.00
2018,01,24,07,55,0.00
2018,01,24,07,56,0.00
2018,01,24,07,57,0.00
2018,01,24,07,58,0.20
2018,01,24,07,59,0.00
2018,01,24,08,00,0.00
2018,01,24,08,01,0.30
2018,01,24,08,02,0.00
2018,01,24,08,03,0.00
2018,01,24,08,04,0.00
2018,01,24,08,05,0.00
2018,01,24,08,06,0.00
2018,01,24,08,07,0.00
2018,01,24,08,08,0.00
2018,01,24,08,09,0.00
2018,01,24,08,10,0.00
2018,01,24,08,11,0.00
2018,01,24,08,12,0.00
2018,01,24,08,13,0.00
2018,01,24,08,14,0.00
2018,01,24,08,15,0.00
2018,01,24,08,16,0.00
2018,01,24,08,17,0.00
2018,01,24,08,18,0.00
2018,01,24,08,19,0.00
2018,01,24,08,20,0.00
2018,01,24,08,21,0.00
2018,01,24,08,22,0.00
2018,01,24,08,23,0.00
2018,01,24,08,24,0.00
2018,01,24,08,25,0.00
2018,01,24,08,26,0.00
2018,01,24,08,27,0.00
2018,01,24,08,28,0.00
2018,01,24,08,29,0.00
2018,01,24,08,30,0.00
2018,01,24,08,31,0.00
2018,01,24,08,32,1.10
2018,01,24,08,33,0.70
2018,01,24,08,34,0.50
2018,01,24,08,35,1.70
2018,01,24,08,36,0.30
2018,01,24,08,37,0.00
2018,01,24,08,38,1.20
2018,01,24,08,39,0.40
2018,01,24,08,40,0.10
2018,01,24,08,41,0.10
2018,01,24,08,42,0.00
2018,01,24,08,43,0.20
2018,01,24,08,44,0.10
2018,01,24,08,45,0.00
2018,01,24,08,46,0.00
2018,01,24,08,47,0.00
2018,01,24,08,48,0.00
2018,01,24,08,49,0.00
2018,01,24,08,50,0.00
2018,01,24,08,51,0.00
2018,01,24,08,52,0.00
2018,01,24,08,53,0.80
2018,01,24,08,54,0.80
2018,01,24,08,55,0.80
2018,01,24,08,56,2.50
2018,01,24,08,57,1.70
2018,01,24,08,58,2.10
2018,01,24,08,59,1.70
2018,01,24,09,00,0.20
2018,01,24,09,01,0.00
2018,01,24,09,02,0.00
2018,01,24,09,03,0.30
2018,01,24,09,04,0.00
2018,01,24,09,05,0.00
2018,01,24,09,06,0.00
2018,01,24,09,07,0.00
2018,01,24,09,08,0.00
2018,01,24,09,09,0.00
2018,01,24,09,10,0.00
2018,01,24,09,11,0.00
2018,01,24,09,12,0.00
2018,01,24,09,13,0.00
2018,01,24,09,14,0.10
2018,01,24,09,15,0.60
2018,01,24,09,16,0.00
2018,01,24,09,17,0.80
2018,01,24,09,18,0.00
2018,01,24,09,19,0.20
2018,01,24,09,20,1.80
2018,01,24,09,21,5.10
2018,01,24,09,22,3.30
2018,01,24,09,23,3.70
2018,01,24,09,24,2.80
2018,01,24,09,25,2.70
2018,01,24,09,26,0.40
2018,01,24,09,27,0.20
2018,01,24,09,28,0.30
2018,01,24,09,29,0.00
2018,01,24,09,30,0.00
2018,01,24,09,31,0.00
2018,01,24,09,32,0.20
2018,01,24,09,33,0.00
2018,01,24,09,34,0.00
2018,01,24,09,35,0.10
2018,01,24,09,36,1.40
2018,01,24,09,37,0.80
2018,01,24,09,38,1.40
2018,01,24,09,39,1.40
2018,01,24,09,40,0.00
2018,01,24,09,41,0.00
2018,01,24,09,42,0.10
2018,01,24,09,43,0.00
2018,01,24,09,44,0.40
2018,01,24,09,45,0.40
2018,01,24,09,46,2.70
2018,01,24,09,47,2.90
2018,01,24,09,48,3.40
2018,01,24,09,49,5.90
2018,01,24,09,50,3.30
2018,01,24,09,51,2.30
2018,01,24,09,52,4.00
2018,01,24,09,53,4.40
2018,01,24,09,54,2.80
2018,01,24,09,55,4.20
2018,01,24,09,56,3.20
2018,01,24,09,57,1.80
2018,01,24,09,58,1.70
2018,01,24,09,59,1.60
2018,01,24,10,00,1.30
2018,01,24,10,01,1.80
2018,01,24,10,02,1.50
2018,01,24,10,03,0.50
2018,01,24,10,04,0.90
2018,01,24,10,05,1.80
2018,01,24,10,06,1.40
2018,01,24,10,07,0.40
2018,01,24,10,08,2.10
2018,01,24,10,09,2.10
2018,01,24,10,10,1.70
2018,01,24,10,11,1.60
2018,01,24,10,12,2.20
2018,01,24,10,13,1.90
2018,01,24,10,14,1.30
2018,01,24,10,15,0.70
2018,01,24,10,16,1.30
2018,01,24,10,17,0.30
2018,01,24,10,18,0.00
2018,01,24,10,19,0.00
2018,01,24,10,20,0.00
2018,01,24,10,21,0.10
2018,01,24,10,22,1.30
2018,01,24,10,23,2.30
2018,01,24,10,24,1.20
2018,01,24,10,25,3.40
2018,01,24,10,26,1.70
2018,01,24,10,27,1.80
2018,01,24,10,28,3.90
2018,01,24,10,29,2.70
2018,01,24,10,30,5.40
2018,01,24,10,31,2.70
2018,01,24,10,32,0.40
2018,01,24,10,33,1.20
2018,01,24,10,34,3.20
2018,01,24,10,35,5.60
2018,01,24,10,36,3.60
2018,01,24,10,37,2.70
2018,01,24,10,38,1.90
2018,01,24,10,39,1.80
2018,01,24,10,40,1.60
2018,01,24,10,41,5.80
2018,01,24,10,42,4.10
2018,01,24,10,43,1.80
2018,01,24,10,44,2.60
2018,01,24,10,45,2.40
2018,01,24,10,46,2.30
2018,01,24,10,47,6.60
2018,01,24,10,48,1.90
2018,01,24,10,49,2.20
2018,01,24,10,50,3.00
2018,01,24,10,51,3.40
2018,01,24,10,52,8.90
2018,01,24,10,53,5.60
2018,01,24,10,54,4.00
2018,01,24,10,55,4.50
2018,01,24,10,56,5.40
2018,01,24,10,57,2.10
2018,01,24,10,58,2.70
2018,01,24,10,59,1.80
2018,01,24,11,00,1.80
2018,01,24,11,01,1.80
2018,01,24,11,02,1.10
2018,01,24,11,03,2.30
2018,01,24,11,04,2.40
2018,01,24,11,05,1.40
2018,01,24,11,06,1.20
2018,01,24,11,07,1.70
2018,01,24,11,08,2.40
2018,01,24,11,09,1.30
2018,01,24,11,10,1.20
2018,01,24,11,11,2.60
2018,01,24,11,12,2.10
2018,01,24,11,13,1.80
2018,01,24,11,14,2.40
2018,01,24,11,15,0.40
2018,01,24,11,16,1.30
2018,01,24,11,17,3.40
2018,01,24,11,18,2.80
2018,01,24,11,19,2.10
2018,01,24,11,20,1.00
2018,01,24,11,21,0.60
2018,01,24,11,22,1.70
2018,01,24,11,23,2.80
2018,01,24,11,24,3.20
2018,01,24,11,25,1.70
2018,01,24,11,26,1.40
2018,01,24,11,27,1.30
2018,01,24,11,28,1.00
2018,01,24,11,29,0.50
2018,01,24,11,30,1.60
2018,01,24,11,31,2.20
2018,01,24,11,32,0.90
2018,01,24,11,33,1.10
2018,01,24,11,34,0.80
2018,01,24,11,35,0.80
2018,01,24,11,36,2.20
2018,01,24,11,37,3.00
2018,01,24,11,38,2.20
2018,01,24,11,39,2.60
2018,01,24,11,40,3.20
2018,01,24,11,41,1.70
2018,01,24,11,42,3.50
2018,01,24,11,43,3.30
2018,01,24,11,44,1.50
2018,01,24,11,45,0.60
2018,01,24,11,46,0.60
2018,01,24,11,47,2.20
2018,01,24,11,48,1.30
2018,01,24,11,49,0.70
2018,01,24,11,50,0.60
2018,01,24,11,51,1.10
2018,01,24,11,52,0.60
2018,01,24,11,53,0.20
2018,01,24,11,54,1.70
2018,01,24,11,55,0.60
2018,01,24,11,56,1.40
2018,01,24,11,57,3.60
2018,01,24,11,58,3.50
2018,01,24,11,59,2.50
2018,01,24,12,00,1.00
2018,01,24,12,01,0.20
2018,01,24,12,02,2.20
2018,01,24,12,03,1.90
2018,01,24,12,04,3.80
2018,01,24,12,05,3.90
2018,01,24,12,06,3.00
2018,01,24,12,07,2.30
2018,01,24,12,08,1.80
2018,01,24,12,09,0.90
2018,01,24,12,10,2.10
2018,01,24,12,11,2.50
2018,01,24,12,12,2.10
2018,01,24,12,13,1.20
2018,01,24,12,14,1.40
2018,01,24,12,15,1.50
2018,01,24,12,16,2.80
2018,01,24,12,17,2.00
2018,01,24,12,18,1.30
2018,01,24,12,19,0.90
2018,01,24,12,20,0.20
2018,01,24,12,21,0.20
2018,01,24,12,22,1.10
2018,01,24,12,23,1.40
2018,01,24,12,24,2.00
2018,01,24,12,25,2.70
2018,01,24,12,26,2.40
2018,01,24,12,27,2.60
2018,01,24,12,28,2.20
2018,01,24,12,29,4.30
2018,01,24,12,30,4.20
2018,01,24,12,31,5.00
2018,01,24,12,32,2.90
2018,01,24,12,33,4.50
2018,01,24,12,34,1.80
2018,01,24,12,35,1.40
2018,01,24,12,36,0.90
2018,01,24,12,37,0.60
2018,01,24,12,38,2.40
2018,01,24,12,39,1.60
2018,01,24,12,40,3.70
2018,01,24,12,41,3.80
2018,01,24,12,42,3.30
2018,01,24,12,43,6.40
2018,01,24,12,44,9.50
2018,01,24,12,45,5.00
2018,01,24,12,46,2.20
2018,01,24,12,47,2.70
2018,01,24,12,48,2.40
2018,01,24,12,49,2.70
2018,01,24,12,50,6.00
2018,01,24,12,51,3.80
2018,01,24,12,52,3.20
2018,01,24,12,53,4.30
2018,01,24,12,54,3.40
2018,01,24,12,55,6.40
2018,01,24,12,56,6.20
2018,01,24,12,57,1.80
2018,01,24,12,58,1.90
2018,01,24,12,59,1.70
2018,01,24,13,00,1.80
2018,01,24,13,01,2.80
2018,01,24,13,02,1.40
2018,01,24,13,03,2.10
2018,01,24,13,04,1.80
2018,01,24,13,05,1.60
2018,01,24,13,06,1.90
2018,01,24,13,07,2.50
2018,01,24,13,08,3.20
2018,01,24,13,09,1.60
2018,01,24,13,10,2.90
2018,01,24,13,11,2.30
2018,01,24,13,12,2.70
2018,01,24,13,13,3.40
2018,01,24,13,14,3.70
2018,01,24,13,15,3.60
2018,01,24,13,16,3.10
2018,01,24,13,17,2.40
2018,01,24,13,18,1.60
2018,01,24,13,19,2.50
2018,01,24,13,20,2.10
2018,01,24,13,21,0.90
2018,01,24,13,22,2.30
2018,01,24,13,23,2.00
2018,01,24,13,24,5.10
2018,01,24,13,25,4.80
2018,01,24,13,26,3.60
2018,01,24,13,27,6.70
2018,01,24,13,28,3.70
2018,01,24,13,29,1.10
2018,01,24,13,30,1.30
2018,01,24,13,31,1.90
2018,01,24,13,32,7.90
2018,01,24,13,33,7.80
2018,01,24,13,34,4.60
2018,01,24,13,35,4.90
2018,01,24,13,36,3.60
2018,01,24,13,37,2.70
2018,01,24,13,38,3.40
2018,01,24,13,39,4.90
2018,01,24,13,40,2.80
2018,01,24,13,41,5.50
2018,01,24,13,42,4.30
2018,01,24,13,43,5.70
2018,01,24,13,44,4.90
2018,01,24,13,45,2.60
2018,01,24,13,46,2.10
2018,01,24,13,47,3.10
2018,01,24,13,48,3.80
2018,01,24,13,49,4.80
2018,01,24,13,50,3.50
2018,01,24,13,51,3.40
2018,01,24,13,52,2.80
2018,01,24,13,53,2.00
2018,01,24,13,54,1.90
2018,01,24,13,55,3.80
2018,01,24,13,56,3.20
2018,01,24,13,57,2.10
2018,01,24,13,58,3.80
2018,01,24,13,59,4.00
2018,01,24,14,00,3.00
2018,01,24,14,01,3.40
2018,01,24,14,02,3.10
2018,01,24,14,03,3.20
2018,01,24,14,04,0.90
2018,01,24,14,05,1.40
2018,01,24,14,06,3.60
2018,01,24,14,07,3.80
2018,01,24,14,08,4.70
2018,01,24,14,09,3.40
2018,01,24,14,10,1.30
2018,01,24,14,11,2.50
2018,01,24,14,12,2.60
2018,01,24,14,13,3.20
2018,01,24,14,14,3.10
2018,01,24,14,15,6.60
2018,01,24,14,16,10.20
2018,01,24,14,17,10.70
2018,01,24,14,18,4.50
2018,01,24,14,19,2.40
2018,01,24,14,20,3.10
2018,01,24,14,21,3.10
2018,01,24,14,22,2.00
2018,01,24,14,23,2.30
2018,01,24,14,24,2.00
2018,01,24,14,25,2.10
2018,01,24,14,26,2.40
2018,01,24,14,27,3.30
2018,01,24,14,28,2.70
2018,01,24,14,29,1.30
2018,01,24,14,30,2.80
2018,01,24,14,31,4.00
2018,01,24,14,32,6.60
2018,01,24,14,33,5.00
2018,01,24,14,34,3.80
2018,01,24,14,35,2.60
2018,01,24,14,36,2.60
2018,01,24,14,37,2.50
2018,01,24,14,38,2.80
2018,01,24,14,39,2.10
2018,01,24,14,40,4.00
2018,01,24,14,41,1.90
2018,01,24,14,42,4.30
2018,01,24,14,43,1.50
2018,01,24,14,44,2.90
2018,01,24,14,45,3.40
2018,01,24,14,46,1.40
2018,01,24,14,47,2.60
2018,01,24,14,48,2.10
2018,01,24,14,49,2.40
2018,01,24,14,50,5.20
2018,01,24,14,51,2.90
2018,01,24,14,52,5.20
2018,01,24,14,53,3.40
2018,01,24,14,54,1.90
2018,01,24,14,55,3.00
2018,01,24,14,56,2.80
2018,01,24,14,57,3.80
2018,01,24,14,58,2.00
2018,01,24,14,59,2.90
2018,01,24,15,00,5.40
2018,01,24,15,01,2.80
2018,01,24,15,02,1.50
2018,01,24,15,03,1.70
2018,01,24,15,04,2.20
2018,01,24,15,05,0.60
2018,01,24,15,06,1.10
2018,01,24,15,07,1.20
2018,01,24,15,08,2.00
2018,01,24,15,09,2.50
2018,01,24,15,10,1.40
2018,01,24,15,11,1.60
2018,01,24,15,12,3.70
2018,01,24,15,13,1.90
2018,01,24,15,14,2.60
2018,01,24,15,15,2.70
2018,01,24,15,16,4.70
2018,01,24,15,17,4.20
2018,01,24,15,18,3.40
2018,01,24,15,19,2.70
2018,01,24,15,20,6.10
2018,01,24,15,21,4.70
2018,01,24,15,22,2.40
2018,01,24,15,23,2.50
2018,01,24,15,24,1.50
2018,01,24,15,25,1.40
2018,01,24,15,26,1.10
2018,01,24,15,27,1.20
2018,01,24,15,28,1.70
2018,01,24,15,29,1.30
2018,01,24,15,30,2.40
2018,01,24,15,31,1.70
2018,01,24,15,32,0.90
2018,01,24,15,33,0.30
2018,01,24,15,34,0.30
2018,01,24,15,35,2.20
2018,01,24,15,36,2.60
2018,01,24,15,37,3.50
2018,01,24,15,38,3.50
2018,01,24,15,39,4.90
2018,01,24,15,40,4.70
2018,01,24,15,41,2.20
2018,01,24,15,42,1.00
2018,01,24,15,43,1.00
2018,01,24,15,44,1.60
2018,01,24,15,45,0.00
2018,01,24,15,46,0.70
2018,01,24,15,47,0.20
2018,01,24,15,48,0.30
2018,01,24,15,49,0.30
2018,01,24,15,50,1.60
2018,01,24,15,51,0.30
2018,01,24,15,52,1.50
2018,01,24,15,53,0.60
2018,01,24,15,54,0.60
2018,01,24,15,55,1.50
2018,01,24,15,56,0.80
2018,01,24,15,57,0.60
2018,01,24,15,58,0.20
2018,01,24,15,59,0.60
2018,01,24,16,00,0.20
2018,01,24,16,01,0.30
2018,01,24,16,02,0.90
2018,01,24,16,03,0.60
2018,01,24,16,04,0.00
2018,01,24,16,05,0.00
2018,01,24,16,06,0.00
2018,01,24,16,07,0.00
2018,01,24,16,08,0.00
2018,01,24,16,09,0.80
2018,01,24,16,10,0.20
2018,01,24,16,11,0.00
2018,01,24,16,12,0.00
2018,01,24,16,13,0.20
2018,01,24,16,14,2.60
2018,01,24,16,15,1.80
2018,01,24,16,16,1.70
2018,01,24,16,17,1.30
2018,01,24,16,18,1.90
2018,01,24,16,19,2.70
2018,01,24,16,20,0.90
2018,01,24,16,21,0.80
2018,01,24,16,22,0.90
2018,01,24,16,23,0.00
2018,01,24,16,24,0.20
2018,01,24,16,25,0.10
2018,01,24,16,26,0.00
2018,01,24,16,27,0.90
2018,01,24,16,28,1.30
2018,01,24,16,29,2.60
2018,01,24,16,30,1.80
2018,01,24,16,31,2.20
2018,01,24,16,32,3.70
2018,01,24,16,33,3.50
2018,01,24,16,34,2.20
2018,01,24,16,35,2.90
2018,01,24,16,36,1.80
2018,01,24,16,37,1.30
2018,01,24,16,38,0.80
2018,01,24,16,39,0.00
2018,01,24,16,40,0.60
2018,01,24,16,41,1.10
2018,01,24,16,42,0.60
2018,01,24,16,43,0.20
2018,01,24,16,44,0.40
2018,01,24,16,45,0.90
2018,01,24,16,46,0.50
2018,01,24,16,47,0.30
2018,01,24,16,48,0.00
2018,01,24,16,49,0.00
2018,01,24,16,50,0.20
2018,01,24,16,51,1.10
2018,01,24,16,52,0.30
2018,01,24,16,53,0.80
2018,01,24,16,54,1.20
2018,01,24,16,55,2.50
2018,01,24,16,56,3.20
2018,01,24,16,57,2.20
2018,01,24,16,58,0.80
2018,01,24,16,59,0.60
2018,01,24,17,00,0.70
2018,01,24,17,01,0.80
2018,01,24,17,02,0.50
2018,01,24,17,03,0.50
2018,01,24,17,04,0.00
2018,01,24,17,05,0.00
2018,01,24,17,06,0.00
2018,01,24,17,07,0.00
2018,01,24,17,08,0.50
2018,01,24,17,09,0.70
2018,01,24,17,10,0.70
2018,01,24,17,11,1.40
2018,01,24,17,12,1.90
2018,01,24,17,13,1.90
2018,01,24,17,14,1.80
2018,01,24,17,15,1.20
2018,01,24,17,16,2.00
2018,01,24,17,17,1.40
2018,01,24,17,18,2.30
2018,01,24,17,19,1.90
2018,01,24,17,20,1.60
2018,01,24,17,21,1.20
2018,01,24,17,22,2.60
2018,01,24,17,23,3.50
2018,01,24,17,24,2.80
2018,01,24,17,25,2.20
2018,01,24,17,26,2.10
2018,01,24,17,27,1.30
2018,01,24,17,28,1.90
2018,01,24,17,29,0.40
2018,01,24,17,30,0.20
2018,01,24,17,31,1.40
2018,01,24,17,32,1.70
2018,01,24,17,33,0.50
2018,01,24,17,34,0.30
2018,01,24,17,35,1.90
2018,01,24,17,36,2.20
2018,01,24,17,37,0.00
2018,01,24,17,38,1.00
2018,01,24,17,39,0.20
2018,01,24,17,40,0.00
2018,01,24,17,41,0.20
2018,01,24,17,42,0.70
2018,01,24,17,43,1.00
2018,01,24,17,44,2.40
2018,01,24,17,45,3.00
2018,01,24,17,46,3.80
2018,01,24,17,47,1.90
2018,01,24,17,48,0.60
2018,01,24,17,49,0.00
2018,01,24,17,50,0.00
2018,01,24,17,51,0.40
2018,01,24,17,52,1.60
2018,01,24,17,53,0.30
2018,01,24,17,54,0.00
2018,01,24,17,55,0.60
2018,01,24,17,56,4.10
2018,01,24,17,57,1.60
2018,01,24,17,58,0.10
2018,01,24,17,59,0.60
2018,01,24,18,00,1.80
2018,01,24,18,01,1.80
2018,01,24,18,02,0.00
2018,01,24,18,03,0.10
2018,01,24,18,04,1.40
2018,01,24,18,05,0.80